Time,TemperatureF,DewpointF,PressureIn,WindDirection,WindDirectionDegrees,WindSpeedMPH,WindSpeedGustMPH,Humidity,HourlyPrecipIn,Conditions,Clouds,dailyrainin,SoftwareType,DateUTC
2013-03-10 00:00:00,45.4,34.3,30.09,East,83,0.0,0.0,65,0.00,,,0.00,Wunderground v.1.15,2013-03-10 05:00:00,
2013-03-10 00:05:00,45.5,34.4,30.09,East,83,0.0,0.0,65,0.00,,,0.00,Wunderground v.1.15,2013-03-10 05:05:00,
2013-03-10 00:10:00,45.7,35.0,30.09,East,83,0.0,0.0,66,0.00,,,0.00,Wunderground v.1.15,2013-03-10 05:10:00,
2013-03-10 00:15:00,45.7,35.0,30.08,East,83,0.0,0.0,66,0.00,,,0.00,Wunderground v.1.15,2013-03-10 05:15:00,
2013-03-10 00:20:00,45.7,35.0,30.08,East,83,0.0,0.0,66,0.00,,,0.00,Wunderground v.1.15,2013-03-10 05:20:00,
2013-03-10 00:30:00,45.5,35.5,30.08,East,83,0.0,0.0,68,0.00,,,0.00,Wunderground v.1.15,2013-03-10 05:30:00,
2013-03-10 00:40:00,45.2,35.3,30.08,East,83,0.0,1.0,68,0.00,,,0.00,Wunderground v.1.15,2013-03-10 05:40:00,
2013-03-10 00:45:00,45.5,34.8,30.08,East,83,0.0,1.0,66,0.00,,,0.00,Wunderground v.1.15,2013-03-10 05:45:00,
2013-03-10 00:55:00,46.1,34.6,30.08,East,83,0.0,1.0,64,0.00,,,0.00,Wunderground v.1.15,2013-03-10 05:55:00,
2013-03-10 01:05:00,45.8,35.1,30.07,East,83,0.0,1.0,66,0.00,,,0.00,Wunderground v.1.15,2013-03-10 06:05:00,
2013-03-10 01:10:00,45.7,35.0,30.07,East,83,0.0,1.0,66,0.00,,,0.00,Wunderground v.1.15,2013-03-10 06:10:00,
2013-03-10 01:20:00,46.1,34.2,30.06,East,83,0.0,0.0,63,0.00,,,0.00,Wunderground v.1.15,2013-03-10 06:20:00,
2013-03-10 01:30:00,46.7,34.0,30.06,East,83,0.0,1.0,61,0.00,,,0.00,Wunderground v.1.15,2013-03-10 06:30:00,
2013-03-10 01:40:00,47.1,33.1,30.06,East,83,0.0,0.0,58,0.00,,,0.00,Wunderground v.1.15,2013-03-10 06:40:00,
2013-03-10 01:50:00,47.6,33.5,30.07,East,83,0.0,0.0,58,0.00,,,0.00,Wunderground v.1.15,2013-03-10 06:50:00,
2013-03-10 03:00:00,47.3,33.7,30.07,East,83,0.0,0.0,59,0.00,,,0.00,Wunderground v.1.15,2013-03-10 07:00:00,
2013-03-10 03:10:00,47.0,34.2,30.07,East,83,0.0,2.0,61,0.00,,,0.00,Wunderground v.1.15,2013-03-10 07:10:00,
2013-03-10 03:15:00,46.8,34.0,30.06,East,83,0.0,2.0,61,0.00,,,0.00,Wunderground v.1.15,2013-03-10 07:15:00,
2013-03-10 03:25:00,46.8,32.8,30.06,East,83,0.0,2.0,58,0.00,,,0.00,Wunderground v.1.15,2013-03-10 07:25:00,
2013-03-10 03:30:00,46.8,34.0,30.06,East,83,0.0,2.0,61,0.00,,,0.00,Wunderground v.1.15,2013-03-10 07:30:00,
2013-03-10 03:40:00,46.7,34.8,30.06,East,83,0.0,0.0,63,0.00,,,0.00,Wunderground v.1.15,2013-03-10 07:40:00,
2013-03-10 03:45:00,46.2,36.2,30.05,East,83,0.0,0.0,68,0.00,,,0.00,Wunderground v.1.15,2013-03-10 07:45:00,
2013-03-10 03:55:00,45.7,35.0,30.05,East,83,0.0,0.0,66,0.00,,,0.00,Wunderground v.1.15,2013-03-10 07:55:00,
2013-03-10 04:00:00,45.7,35.7,30.05,East,83,0.0,0.0,68,0.00,,,0.00,Wunderground v.1.15,2013-03-10 08:00:00,
2013-03-10 04:10:00,45.4,36.2,30.05,East,83,0.0,2.0,70,0.00,,,0.00,Wunderground v.1.15,2013-03-10 08:10:00,
2013-03-10 04:20:00,44.9,35.7,30.04,East,83,0.0,2.0,70,0.00,,,0.00,Wunderground v.1.15,2013-03-10 08:20:00,
2013-03-10 04:25:00,44.9,35.3,30.04,East,83,0.0,2.0,69,0.00,,,0.00,Wunderground v.1.15,2013-03-10 08:25:00,
2013-03-10 04:35:00,44.5,35.3,30.03,East,83,0.0,2.0,70,0.00,,,0.00,Wunderground v.1.15,2013-03-10 08:35:00,
2013-03-10 04:40:00,44.3,35.5,30.03,East,83,0.0,0.0,71,0.00,,,0.00,Wunderground v.1.15,2013-03-10 08:40:00,
2013-03-10 04:50:00,44.2,35.0,30.04,East,83,0.0,0.0,70,0.00,,,0.00,Wunderground v.1.15,2013-03-10 08:50:00,
2013-03-10 05:00:00,44.5,35.0,30.03,East,83,0.0,0.0,69,0.00,,,0.00,Wunderground v.1.15,2013-03-10 09:00:00,
2013-03-10 05:05:00,44.3,34.8,30.03,East,83,0.0,0.0,69,0.00,,,0.00,Wunderground v.1.15,2013-03-10 09:05:00,
2013-03-10 05:14:00,44.1,35.3,30.04,East,83,0.0,0.0,71,0.00,,,0.00,Wunderground v.1.15,2013-03-10 09:14:00,
2013-03-10 05:20:00,43.9,35.1,30.04,East,83,0.0,0.0,71,0.00,,,0.00,Wunderground v.1.15,2013-03-10 09:20:00,
2013-03-10 05:25:00,43.8,35.0,30.04,East,83,0.0,0.0,71,0.00,,,0.00,Wunderground v.1.15,2013-03-10 09:25:00,
2013-03-10 05:30:00,43.6,35.2,30.03,East,83,0.0,0.0,72,0.00,,,0.00,Wunderground v.1.15,2013-03-10 09:30:00,
2013-03-10 05:40:00,43.5,35.4,30.03,East,83,0.0,0.0,73,0.00,,,0.00,Wunderground v.1.15,2013-03-10 09:40:00,
2013-03-10 05:45:00,43.5,35.4,30.04,East,83,0.0,0.0,73,0.00,,,0.00,Wunderground v.1.15,2013-03-10 09:45:00,
2013-03-10 05:55:00,43.3,35.2,30.04,East,83,0.0,0.0,73,0.00,,,0.00,Wunderground v.1.15,2013-03-10 09:55:00,
2013-03-10 06:05:00,43.1,35.4,30.04,East,83,0.0,0.0,74,0.00,,,0.00,Wunderground v.1.15,2013-03-10 10:05:00,
2013-03-10 06:10:00,42.9,35.2,30.04,East,83,0.0,0.0,74,0.00,,,0.00,Wunderground v.1.15,2013-03-10 10:10:00,
2013-03-10 06:20:00,42.8,35.1,30.04,East,83,0.0,0.0,74,0.00,,,0.00,Wunderground v.1.15,2013-03-10 10:20:00,
2013-03-10 06:30:00,42.8,35.4,30.04,East,83,0.0,0.0,75,0.00,,,0.00,Wunderground v.1.15,2013-03-10 10:30:00,
2013-03-10 06:40:00,42.6,35.2,30.04,East,83,0.0,0.0,75,0.00,,,0.00,Wunderground v.1.15,2013-03-10 10:40:00,
2013-03-10 06:45:00,42.5,35.5,30.04,East,83,0.0,0.0,76,0.00,,,0.00,Wunderground v.1.15,2013-03-10 10:45:00,
2013-03-10 06:54:00,42.1,35.1,30.05,East,83,0.0,0.0,76,0.00,,,0.00,Wunderground v.1.15,2013-03-10 10:54:00,
2013-03-10 07:00:00,41.9,35.2,30.05,East,83,0.0,0.0,77,0.00,,,0.00,Wunderground v.1.15,2013-03-10 11:00:00,
2013-03-10 07:05:00,42.1,35.4,30.05,East,83,0.0,0.0,77,0.00,,,0.00,Wunderground v.1.15,2013-03-10 11:05:00,
2013-03-10 07:10:00,42.1,35.4,30.05,East,83,0.0,0.0,77,0.00,,,0.00,Wunderground v.1.15,2013-03-10 11:10:00,
2013-03-10 07:20:00,42.1,35.7,30.05,East,83,0.0,0.0,78,0.00,,,0.00,Wunderground v.1.15,2013-03-10 11:20:00,
2013-03-10 07:30:00,42.1,35.7,30.05,East,83,0.0,0.0,78,0.00,,,0.00,Wunderground v.1.15,2013-03-10 11:30:00,
2013-03-10 07:35:00,42.1,35.7,30.06,East,83,0.0,0.0,78,0.00,,,0.00,Wunderground v.1.15,2013-03-10 11:35:00,
2013-03-10 07:45:00,42.1,36.1,30.06,East,83,0.0,0.0,79,0.00,,,0.00,Wunderground v.1.15,2013-03-10 11:45:00,
2013-03-10 07:50:00,42.2,36.2,30.07,East,83,0.0,0.0,79,0.00,,,0.00,Wunderground v.1.15,2013-03-10 11:50:00,
2013-03-10 08:00:00,42.5,36.1,30.07,East,83,0.0,0.0,78,0.00,,,0.00,Wunderground v.1.15,2013-03-10 12:00:00,
2013-03-10 08:10:00,42.5,36.4,30.07,East,83,0.0,0.0,79,0.00,,,0.00,Wunderground v.1.15,2013-03-10 12:10:00,
2013-03-10 08:20:00,42.5,36.4,30.08,East,83,0.0,0.0,79,0.00,,,0.00,Wunderground v.1.15,2013-03-10 12:20:00,
2013-03-10 08:30:00,42.6,36.2,30.08,East,83,0.0,0.0,78,0.00,,,0.00,Wunderground v.1.15,2013-03-10 12:30:00,
2013-03-10 08:35:00,42.8,36.4,30.08,East,83,0.0,0.0,78,0.00,,,0.00,Wunderground v.1.15,2013-03-10 12:35:00,
2013-03-10 08:40:00,42.8,36.4,30.08,East,83,0.0,0.0,78,0.00,,,0.00,Wunderground v.1.15,2013-03-10 12:40:00,
2013-03-10 08:50:00,43.2,36.8,30.09,East,83,0.0,0.0,78,0.00,,,0.00,Wunderground v.1.15,2013-03-10 12:50:00,
2013-03-10 09:00:00,43.8,37.1,30.09,East,83,0.0,0.0,77,0.00,,,0.00,Wunderground v.1.15,2013-03-10 13:00:00,
2013-03-10 09:05:00,44.1,37.7,30.09,East,83,0.0,0.0,78,0.00,,,0.00,Wunderground v.1.15,2013-03-10 13:05:00,
2013-03-10 09:15:00,44.8,38.0,30.09,East,83,0.0,0.0,77,0.00,,,0.00,Wunderground v.1.15,2013-03-10 13:15:00,
2013-03-10 09:20:00,45.2,38.4,30.09,East,83,0.0,0.0,77,0.00,,,0.00,Wunderground v.1.15,2013-03-10 13:20:00,
2013-03-10 09:30:00,46.0,38.5,30.09,East,83,0.0,0.0,75,0.00,,,0.00,Wunderground v.1.15,2013-03-10 13:30:00,
2013-03-10 09:40:00,47.3,38.4,30.10,East,83,0.0,0.0,71,0.00,,,0.00,Wunderground v.1.15,2013-03-10 13:40:00,
2013-03-10 09:50:00,48.9,38.4,30.10,East,83,0.0,1.0,67,0.00,,,0.00,Wunderground v.1.15,2013-03-10 13:50:00,
2013-03-10 09:55:00,49.8,37.7,30.10,East,83,1.0,2.0,63,0.00,,,0.00,Wunderground v.1.15,2013-03-10 13:55:00,
2013-03-10 10:05:00,51.7,37.4,30.09,East,83,1.0,1.0,58,0.00,,,0.00,Wunderground v.1.15,2013-03-10 14:05:00,
2013-03-10 10:10:00,52.6,35.9,30.09,East,88,1.0,1.0,53,0.00,,,0.00,Wunderground v.1.15,2013-03-10 14:10:00,
2013-03-10 10:20:00,53.9,35.2,30.09,East,92,2.0,2.0,49,0.00,,,0.00,Wunderground v.1.15,2013-03-10 14:20:00,
2013-03-10 10:30:00,56.3,34.1,30.09,East,93,1.0,1.0,43,0.00,,,0.00,Wunderground v.1.15,2013-03-10 14:30:00,
2013-03-10 10:35:00,57.5,34.6,30.09,East,92,1.0,1.0,42,0.00,,,0.00,Wunderground v.1.15,2013-03-10 14:35:00,
2013-03-10 10:40:00,58.4,33.5,30.09,East,92,1.0,1.0,39,0.00,,,0.00,Wunderground v.1.15,2013-03-10 14:40:00,
2013-03-10 10:50:00,59.5,31.8,30.09,East,96,2.0,3.0,35,0.00,,,0.00,Wunderground v.1.15,2013-03-10 14:50:00,
2013-03-10 11:00:00,60.4,32.6,30.09,ESE,113,2.0,2.0,35,0.00,,,0.00,Wunderground v.1.15,2013-03-10 15:00:00,
2013-03-10 11:10:00,61.3,32.7,30.08,SE,128,2.0,2.0,34,0.00,,,0.00,Wunderground v.1.15,2013-03-10 15:10:00,
2013-03-10 11:15:00,62.1,34.1,30.08,East,90,3.0,3.0,35,0.00,,,0.00,Wunderground v.1.15,2013-03-10 15:15:00,
2013-03-10 11:25:00,62.4,33.6,30.08,East,86,3.0,3.0,34,0.00,,,0.00,Wunderground v.1.15,2013-03-10 15:25:00,
2013-03-10 11:30:00,62.3,33.6,30.08,East,89,3.0,3.0,34,0.00,,,0.00,Wunderground v.1.15,2013-03-10 15:30:00,
2013-03-10 11:40:00,62.0,33.3,30.07,East,79,2.0,2.0,34,0.00,,,0.00,Wunderground v.1.15,2013-03-10 15:40:00,
2013-03-10 11:50:00,63.1,32.7,30.06,East,95,2.0,2.0,32,0.00,,,0.00,Wunderground v.1.15,2013-03-10 15:50:00,
2013-03-10 12:00:00,63.9,32.6,30.06,ESE,121,3.0,3.0,31,0.00,,,0.00,Wunderground v.1.15,2013-03-10 16:00:00,
2013-03-10 12:10:00,65.0,32.8,30.06,ESE,109,3.0,5.0,30,0.00,,,0.00,Wunderground v.1.15,2013-03-10 16:10:00,
2013-03-10 12:15:00,65.8,34.3,30.06,ESE,119,3.0,6.0,31,0.00,,,0.00,Wunderground v.1.15,2013-03-10 16:15:00,
2013-03-10 12:25:00,66.1,33.7,30.05,ESE,116,2.0,6.0,30,0.00,,,0.00,Wunderground v.1.15,2013-03-10 16:25:00,
2013-03-10 12:30:00,66.8,33.5,30.05,ESE,116,2.0,2.0,29,0.00,,,0.00,Wunderground v.1.15,2013-03-10 16:30:00,
2013-03-10 12:40:00,67.4,34.0,30.04,ESE,117,2.0,5.0,29,0.00,,,0.00,Wunderground v.1.15,2013-03-10 16:40:00,
2013-03-10 12:50:00,68.3,32.1,30.03,SSE,154,3.0,3.0,26,0.00,,,0.00,Wunderground v.1.15,2013-03-10 16:50:00,
2013-03-10 13:00:00,68.9,33.5,30.03,SSE,147,2.0,3.0,27,0.00,,,0.00,Wunderground v.1.15,2013-03-10 17:00:00,
2013-03-10 13:05:00,69.6,35.0,30.03,SE,144,3.0,4.0,28,0.00,,,0.00,Wunderground v.1.15,2013-03-10 17:05:00,
2013-03-10 13:15:00,70.4,32.9,30.03,SSW,195,2.0,3.0,25,0.00,,,0.00,Wunderground v.1.15,2013-03-10 17:15:00,
2013-03-10 13:20:00,71.1,33.5,30.02,East,89,1.0,3.0,25,0.00,,,0.00,Wunderground v.1.15,2013-03-10 17:20:00,
2013-03-10 13:30:00,71.1,31.4,30.02,SSW,195,4.0,6.0,23,0.00,,,0.00,Wunderground v.1.15,2013-03-10 17:30:00,
2013-03-10 13:40:00,71.5,32.8,30.01,South,189,2.0,2.0,24,0.00,,,0.00,Wunderground v.1.15,2013-03-10 17:40:00,
2013-03-10 13:45:00,71.5,31.7,30.01,SE,131,4.0,12.0,23,0.00,,,0.00,Wunderground v.1.15,2013-03-10 17:45:00,
2013-03-10 13:55:00,71.3,31.6,30.00,SSE,162,4.0,6.0,23,0.00,,,0.00,Wunderground v.1.15,2013-03-10 17:55:00,
2013-03-10 14:00:00,72.1,32.2,30.00,South,182,1.0,4.0,23,0.00,,,0.00,Wunderground v.1.15,2013-03-10 18:00:00,
2013-03-10 14:10:00,73.2,30.9,30.00,SSE,164,4.0,4.0,21,0.00,,,0.00,Wunderground v.1.15,2013-03-10 18:10:00,
2013-03-10 14:19:00,73.5,31.1,29.99,SSW,210,3.0,6.0,21,0.00,,,0.00,Wunderground v.1.15,2013-03-10 18:19:00,
2013-03-10 14:25:00,73.3,31.0,29.99,WNW,284,3.0,6.0,21,0.00,,,0.00,Wunderground v.1.15,2013-03-10 18:25:00,
2013-03-10 14:30:00,73.3,29.8,29.99,SW,215,3.0,3.0,20,0.00,,,0.00,Wunderground v.1.15,2013-03-10 18:30:00,
2013-03-10 14:40:00,73.3,31.0,29.97,South,178,3.0,3.0,21,0.00,,,0.00,Wunderground v.1.15,2013-03-10 18:40:00,
2013-03-10 14:50:00,73.7,30.1,29.96,SSE,152,3.0,9.0,20,0.00,,,0.00,Wunderground v.1.15,2013-03-10 18:50:00,
2013-03-10 15:00:00,73.5,31.1,29.96,ESE,119,4.0,4.0,21,0.00,,,0.00,Wunderground v.1.15,2013-03-10 19:00:00,
2013-03-10 15:05:00,73.9,30.3,29.95,SE,143,2.0,4.0,20,0.00,,,0.00,Wunderground v.1.15,2013-03-10 19:05:00,
2013-03-10 15:15:00,74.6,30.9,29.95,South,169,1.0,1.0,20,0.00,,,0.00,Wunderground v.1.15,2013-03-10 19:15:00,
2013-03-10 15:20:00,74.7,33.3,29.95,East,86,1.0,5.0,22,0.00,,,0.00,Wunderground v.1.15,2013-03-10 19:20:00,
2013-03-10 15:30:00,74.6,32.1,29.95,East,85,2.0,2.0,21,0.00,,,0.00,Wunderground v.1.15,2013-03-10 19:30:00,
2013-03-10 15:40:00,74.7,30.9,29.94,North,10,2.0,2.0,20,0.00,,,0.00,Wunderground v.1.15,2013-03-10 19:40:00,
2013-03-10 15:45:00,75.1,31.3,29.94,SE,133,2.0,8.0,20,0.00,,,0.00,Wunderground v.1.15,2013-03-10 19:45:00,
2013-03-10 15:55:00,75.3,32.6,29.95,ESE,102,3.0,3.0,21,0.00,,,0.00,Wunderground v.1.15,2013-03-10 19:55:00,
2013-03-10 16:05:00,75.8,33.1,29.94,ESE,112,3.0,3.0,21,0.00,,,0.00,Wunderground v.1.15,2013-03-10 20:05:00,
2013-03-10 16:10:00,76.5,34.8,29.94,SE,140,3.0,3.0,22,0.00,,,0.00,Wunderground v.1.15,2013-03-10 20:10:00,
2013-03-10 16:20:00,75.8,31.8,29.93,South,171,3.0,3.0,20,0.00,,,0.00,Wunderground v.1.15,2013-03-10 20:20:00,
2013-03-10 16:30:00,75.8,31.8,29.93,SE,141,3.0,3.0,20,0.00,,,0.00,Wunderground v.1.15,2013-03-10 20:30:00,
2013-03-10 16:35:00,76.1,32.1,29.93,SSE,158,3.0,7.0,20,0.00,,,0.00,Wunderground v.1.15,2013-03-10 20:35:00,
2013-03-10 16:45:00,76.3,32.3,29.93,SSE,164,2.0,3.0,20,0.00,,,0.00,Wunderground v.1.15,2013-03-10 20:45:00,
2013-03-10 16:50:00,76.3,32.3,29.92,SSE,154,2.0,4.0,20,0.00,,,0.00,Wunderground v.1.15,2013-03-10 20:50:00,
2013-03-10 16:59:00,76.3,32.3,29.92,South,191,3.0,7.0,20,0.00,,,0.00,Wunderground v.1.15,2013-03-10 20:59:00,
2013-03-10 17:05:00,76.0,32.0,29.91,South,175,2.0,7.0,20,0.00,,,0.00,Wunderground v.1.15,2013-03-10 21:05:00,
2013-03-10 17:10:00,75.3,31.4,29.91,SE,136,3.0,6.0,20,0.00,,,0.00,Wunderground v.1.15,2013-03-10 21:10:00,
2013-03-10 17:20:00,74.7,32.1,29.91,SSW,192,4.0,5.0,21,0.00,,,0.00,Wunderground v.1.15,2013-03-10 21:20:00,
2013-03-10 17:30:00,74.6,33.2,29.91,SSW,195,3.0,6.0,22,0.00,,,0.00,Wunderground v.1.15,2013-03-10 21:30:00,
2013-03-10 17:35:00,74.6,32.1,29.91,South,174,2.0,6.0,21,0.00,,,0.00,Wunderground v.1.15,2013-03-10 21:35:00,
2013-03-10 17:45:00,74.4,33.1,29.91,South,178,3.0,5.0,22,0.00,,,0.00,Wunderground v.1.15,2013-03-10 21:45:00,
2013-03-10 17:50:00,74.2,32.9,29.92,SSW,202,3.0,6.0,22,0.00,,,0.00,Wunderground v.1.15,2013-03-10 21:50:00,
2013-03-10 18:00:00,74.0,33.8,29.92,South,181,1.0,1.0,23,0.00,,,0.00,Wunderground v.1.15,2013-03-10 22:00:00,
2013-03-10 18:10:00,73.9,34.8,29.91,South,181,1.0,1.0,24,0.00,,,0.00,Wunderground v.1.15,2013-03-10 22:10:00,
2013-03-10 18:15:00,73.9,33.7,29.91,South,181,1.0,1.0,23,0.00,,,0.00,Wunderground v.1.15,2013-03-10 22:15:00,
2013-03-10 18:20:00,73.9,33.7,29.91,South,181,0.0,0.0,23,0.00,,,0.00,Wunderground v.1.15,2013-03-10 22:20:00,
2013-03-10 18:30:00,73.5,33.4,29.91,South,176,1.0,3.0,23,0.00,,,0.00,Wunderground v.1.15,2013-03-10 22:30:00,
2013-03-10 18:40:00,73.3,33.2,29.91,South,175,1.0,2.0,23,0.00,,,0.00,Wunderground v.1.15,2013-03-10 22:40:00,
2013-03-10 18:50:00,73.0,34.1,29.91,South,175,0.0,0.0,24,0.00,,,0.00,Wunderground v.1.15,2013-03-10 22:50:00,
2013-03-10 18:55:00,72.8,33.9,29.91,South,175,0.0,0.0,24,0.00,,,0.00,Wunderground v.1.15,2013-03-10 22:55:00,
2013-03-10 19:05:00,72.1,34.3,29.90,South,175,0.0,0.0,25,0.00,,,0.00,Wunderground v.1.15,2013-03-10 23:05:00,
2013-03-10 19:10:00,72.0,34.2,29.90,South,175,0.0,0.0,25,0.00,,,0.00,Wunderground v.1.15,2013-03-10 23:10:00,
2013-03-10 19:20:00,71.1,35.4,29.90,South,175,0.0,0.0,27,0.00,,,0.00,Wunderground v.1.15,2013-03-10 23:20:00,
2013-03-10 19:30:00,70.1,35.5,29.90,South,175,0.0,0.0,28,0.00,,,0.00,Wunderground v.1.15,2013-03-10 23:30:00,
2013-03-10 19:35:00,69.3,35.7,29.90,South,175,0.0,0.0,29,0.00,,,0.00,Wunderground v.1.15,2013-03-10 23:35:00,
2013-03-10 19:45:00,68.9,36.2,29.90,South,175,0.0,0.0,30,0.00,,,0.00,Wunderground v.1.15,2013-03-10 23:45:00,
2013-03-10 19:50:00,68.3,36.5,29.90,South,175,0.0,0.0,31,0.00,,,0.00,Wunderground v.1.15,2013-03-10 23:50:00,
2013-03-10 20:00:00,66.9,34.4,29.90,South,175,0.0,0.0,30,0.00,,,0.00,Wunderground v.1.15,2013-03-11 00:00:00,
2013-03-10 20:10:00,66.6,34.2,29.89,South,175,1.0,1.0,30,0.00,,,0.00,Wunderground v.1.15,2013-03-11 00:10:00,
2013-03-10 20:15:00,66.3,33.9,29.89,South,175,0.0,1.0,30,0.00,,,0.00,Wunderground v.1.15,2013-03-11 00:15:00,
2013-03-10 20:20:00,65.8,36.6,29.89,South,175,0.0,0.0,34,0.00,,,0.00,Wunderground v.1.15,2013-03-11 00:20:00,
2013-03-10 20:30:00,65.6,35.7,29.89,South,175,0.0,0.0,33,0.00,,,0.00,Wunderground v.1.15,2013-03-11 00:30:00,
2013-03-10 20:40:00,67.8,34.4,29.91,SSE,158,2.0,4.0,29,0.00,,,0.00,Wunderground v.1.15,2013-03-11 00:40:00,
2013-03-10 20:50:00,68.8,34.3,29.89,SSE,157,3.0,3.0,28,0.00,,,0.00,Wunderground v.1.15,2013-03-11 00:50:00,
2013-03-10 20:55:00,68.9,33.5,29.89,SSE,157,2.0,3.0,27,0.00,,,0.00,Wunderground v.1.15,2013-03-11 00:55:00,
2013-03-10 21:05:00,69.9,34.4,29.89,SSE,161,3.0,6.0,27,0.00,,,0.00,Wunderground v.1.15,2013-03-11 01:05:00,
2013-03-10 21:10:00,69.9,34.4,29.89,SSE,148,4.0,4.0,27,0.00,,,0.00,Wunderground v.1.15,2013-03-11 01:10:00,
2013-03-10 21:20:00,69.8,34.3,29.88,SSE,154,4.0,4.0,27,0.00,,,0.00,Wunderground v.1.15,2013-03-11 01:20:00,
2013-03-10 21:30:00,69.4,34.9,29.88,SSE,151,3.0,3.0,28,0.00,,,0.00,Wunderground v.1.15,2013-03-11 01:30:00,
2013-03-10 21:40:00,69.3,34.8,29.88,SSE,158,2.0,2.0,28,0.00,,,0.00,Wunderground v.1.15,2013-03-11 01:40:00,
2013-03-10 21:45:00,69.3,34.8,29.88,SSE,151,3.0,5.0,28,0.00,,,0.00,Wunderground v.1.15,2013-03-11 01:45:00,
2013-03-10 21:55:00,69.1,34.6,29.88,SE,144,3.0,6.0,28,0.00,,,0.00,Wunderground v.1.15,2013-03-11 01:55:00,
2013-03-10 22:00:00,68.9,35.3,29.88,SE,134,3.0,3.0,29,0.00,,,0.00,Wunderground v.1.15,2013-03-11 02:00:00,
2013-03-10 22:10:00,68.6,35.1,29.88,SE,136,4.0,4.0,29,0.00,,,0.00,Wunderground v.1.15,2013-03-11 02:10:00,
2013-03-10 22:15:00,68.8,35.2,29.88,SSE,167,5.0,5.0,29,0.00,,,0.00,Wunderground v.1.15,2013-03-11 02:15:00,
2013-03-10 22:25:00,68.6,35.1,29.87,SE,140,5.0,5.0,29,0.00,,,0.00,Wunderground v.1.15,2013-03-11 02:25:00,
2013-03-10 22:30:00,68.4,34.0,29.87,SE,134,4.0,7.0,28,0.00,,,0.00,Wunderground v.1.15,2013-03-11 02:30:00,
2013-03-10 22:40:00,68.3,33.9,29.87,ESE,112,5.0,7.0,28,0.00,,,0.00,Wunderground v.1.15,2013-03-11 02:40:00,
2013-03-10 22:50:00,67.9,34.4,29.87,SE,130,5.0,6.0,29,0.00,,,0.00,Wunderground v.1.15,2013-03-11 02:50:00,
2013-03-10 22:55:00,67.4,34.0,29.87,ESE,123,4.0,6.0,29,0.00,,,0.00,Wunderground v.1.15,2013-03-11 02:55:00,
2013-03-10 23:05:00,66.4,34.0,29.88,ESE,114,3.0,7.0,30,0.00,,,0.00,Wunderground v.1.15,2013-03-11 03:05:00,
2013-03-10 23:10:00,66.8,34.3,29.88,ESE,117,5.0,5.0,30,0.00,,,0.00,Wunderground v.1.15,2013-03-11 03:10:00,
2013-03-10 23:20:00,66.9,34.4,29.88,South,174,6.0,8.0,30,0.00,,,0.00,Wunderground v.1.15,2013-03-11 03:20:00,
2013-03-10 23:30:00,66.9,34.4,29.88,SSE,160,6.0,6.0,30,0.00,,,0.00,Wunderground v.1.15,2013-03-11 03:30:00,
2013-03-10 23:35:00,66.9,33.6,29.87,SSE,158,7.0,7.0,29,0.00,,,0.00,Wunderground v.1.15,2013-03-11 03:35:00,
2013-03-10 23:45:00,66.4,34.0,29.87,ESE,107,7.0,8.0,30,0.00,,,0.00,Wunderground v.1.15,2013-03-11 03:45:00,
2013-03-10 23:50:00,66.3,33.9,29.86,SE,130,7.0,7.0,30,0.00,,,0.00,Wunderground v.1.15,2013-03-11 03:50:00,